GLOBALSTAR M076

Last updated on Sun Jun 21 2026 00:03:18 GMT+0000 (Coordinated Universal Time)

1 37190U 10054C 26171.21921800 -.00000090 00000+0 79453-4 0 9991 2 37190 52.0024 98.9070 0000806 49.2410 108.4862 12.62261874723259
UTC large
Height (km)
Speed (km/s)
/
Latitude / Longitude
Inclination (degrees)
Orbital Period (minutes)
Azimuth
Elevation
Range (km)
Doppler Factor

Next 0 passes for location: London (51.5072 / 0.1276)

No passes found over London.
GLOBALSTAR M076